User: anonymous   Login
Location: Pine Mountain Observatory
(43.7910°N, 120.9377°W)
Time: 04:15:53
(UTC-07:00)
Language:

Cosmos 1867 - Orbit

View from above orbital plane
View from above orbital plane
View from above satellite
View from above satellite

Ground track
Ground track

The orbit data is extracted from the following two-line orbital elements,

1 18187U 87060A   16120.80843464 -.00000071  00000-0  11179-4 0  9995
2 18187  65.0103 305.6762 0020981 270.3920  89.4760 14.31072988504842
Epoch (UTC): 29 April 2016 19:24:08
Eccentricity: 0.0020981
inclination: 65.0103°
perigee height: 773 km
apogee height: 803 km
right ascension of ascending node: 305.6762°
argument of perigee: 270.3920°
revolutions per day: 14.31072988
mean anomaly at epoch: 89.4760°
orbit number at epoch: 50484

The dashed part of the orbit path shows where the satellite is in the earth's shadow,  

DLR